#timestamp,LO_Frequency,Hit,StdDev 
1513861215.8,286047000.3,N
1513861235.6,286046999.7,N
1513861255.5,286047000.5,N
1513861275.3,286047000.3,N
1513861295.2,286047000.9,N
1513861315.9,286047000.4,N
1513861335.7,286047000.9,N
1513861355.6,286047000.1,N
1513861375.4,286047001.8,N
1513861395.2,286047002.0,N
1513861415.1,286046999.7,N
1513861416.0,286046999.7,N
1513861435.8,286047000.6,N
1513861455.7,286047001.2,N
1513861475.5,286047000.8,N
1513861495.3,286047001.2,N
1513861515.2,286047000.5,N
1513861535.0,286047000.5,N
1513861535.9,286047000.5,N
1513861555.8,286047000.9,N
1513861575.6,286047000.3,N
1513861595.4,286046998.1,N
1513861615.3,286047000.6,N
1513861635.1,286046998.4,N
1513861655.8,286046998.5,N
1513861675.7,286046996.5,Y
1513861695.5,286046996.5,P
1513861715.4,286046999.3,N
1513861735.2,286046998.6,N
1513861755.0,286046998.2,N
1513861755.9,286046998.2,N
1513861775.8,286047000.8,N
1513861795.6,286046998.3,N
1513861815.5,286046998.9,N
1513861835.3,286046998.9,N
1513861855.1,286047001.1,N
1513861875.9,286046998.1,N
1513861895.7,286047000.0,N
1513861915.5,286047000.9,N
1513861935.4,286047001.0,N
1513861955.2,286047001.0,N
1513861975.1,286047001.2,N
1513861976.0,286047001.2,N
1513861995.8,286047000.8,N
1513862015.6,286046998.5,N
1513862035.5,286046998.1,N
1513862055.3,286046998.4,N
1513862075.1,286046998.6,N
1513862095.9,286046998.5,N
1513862115.7,286046998.8,N
1513862135.6,286046998.3,N
1513862155.4,286046998.7,N
1513862175.2,286046998.8,N
1513862195.1,286046998.6,N
1513862196.0,286046998.6,N
1513862215.8,286046998.2,N
1513862235.6,286046998.4,N
1513862255.5,286047001.2,N
1513862275.3,286046999.1,N
1513862295.2,286046996.9,N
1513862315.9,286046998.9,N
1513862335.7,286047000.8,N
1513862355.6,286046998.3,N
1513862375.4,286046998.7,N
1513862395.2,286046998.2,N
1513862415.1,286046998.7,N
1513862416.0,286046998.7,N
1513862435.8,286047001.0,N
1513862455.7,286047001.1,N
1513862475.5,286047001.2,N
1513862495.3,286046998.3,N
1513862515.2,286047001.0,N
1513862535.0,286047002.1,N
1513862535.9,286047002.1,N
1513862555.8,286047000.1,N
1513862575.6,286047001.5,N
1513862595.4,286046999.7,N
1513862615.3,286047002.3,N
1513862635.1,286046999.9,N
1513862655.9,286047002.0,N
1513862675.0,286046999.8,N
1513862675.9,286046999.8,N
1513862695.8,286047002.8,N
1513862715.6,286047001.5,N
1513862735.4,286047001.9,N
1513862755.3,286047002.3,N
1513862775.1,286047002.6,N
1513862795.9,286047002.0,N
1513862815.7,286047002.4,N
1513862835.5,286047000.9,N
1513862855.4,286047000.9,N
1513862875.2,286046999.7,N
1513862895.0,286047000.5,N
1513862896.0,286047000.5,N
1513862915.8,286046999.7,N
1513862935.6,286047000.7,N
1513862955.5,286046998.3,N
1513862975.3,286046999.2,N
1513862995.1,286046999.0,N
1513863015.9,286046996.6,N
1513863035.7,286046997.9,N
1513863055.6,286046997.3,N
1513863075.4,286046997.1,N
1513863095.2,286046997.6,N
1513863115.1,286046997.7,N
1513863116.0,286046997.7,N
1513863135.8,286046995.4,N
1513863155.6,286046997.6,N
1513863175.5,286046995.4,N
1513863195.3,286046997.6,N
1513863215.2,286046996.9,N
1513863235.9,286046997.7,N
1513863255.7,286046998.0,N
1513863275.6,286046998.0,N
1513863295.4,286046997.2,N
1513863315.2,286046996.8,N
1513863335.1,286046997.5,N
1513863336.0,286046997.5,N
1513863355.8,286046997.3,N
1513863375.7,286046997.5,N
1513863395.5,286046995.6,Y
1513863415.3,286046997.2,P
1513863435.2,286046997.3,P
1513863455.0,286046996.1,P
1513863455.9,286046996.1,Y
1513863475.8,286047000.7,P
1513863495.6,286047000.1,N
1513863515.4,286047000.8,N
1513863535.3,286047000.8,N
1513863555.1,286047000.7,N
1513863575.8,286046998.6,N
1513863595.7,286047001.1,N
1513863615.5,286046998.9,N
1513863635.4,286046999.4,N
1513863655.2,286046997.2,N
1513863675.0,286046996.7,N
1513863675.9,286046996.7,N
1513863695.8,286046995.0,Y
1513863715.6,286046999.3,P
1513863735.4,286046998.6,P
1513863755.3,286046996.7,P
1513863775.1,286046997.8,N
1513863795.9,286046995.2,Y
1513863815.7,286046995.4,P
1513863835.5,286046996.7,N
1513863855.4,286046994.9,P
1513863875.2,286046997.5,N
1513863895.1,286046999.3,N
1513863896.0,286046999.3,N
1513863915.8,286046996.9,N
1513863935.6,286046998.4,N
1513863955.5,286046998.6,N
1513863975.3,286046998.2,N
1513863995.1,286046998.5,N
1513864015.9,286046998.5,N
1513864035.7,286047000.9,N
1513864055.6,286046999.6,N
1513864075.4,286046996.1,N
1513864095.2,286046994.9,Y
1513864115.1,286046999.2,P
1513864116.0,286046999.2,N
1513864135.8,286047000.9,N
1513864155.7,286047000.6,N
1513864175.5,286047000.5,N
1513864195.3,286047002.3,N
1513864215.2,286047002.5,N
1513864235.0,286047001.1,N
1513864235.9,286047001.1,N
1513864255.8,286046999.3,N
1513864275.6,286046999.4,N
1513864295.5,286046999.5,N
1513864315.3,286046997.4,N
1513864335.1,286046998.0,N
1513864355.9,286046995.2,Y
1513864375.7,286046996.9,P
1513864395.5,286046995.8,N
1513864415.4,286046995.6,N
1513864435.2,286046995.5,N
1513864455.1,286046995.1,N
1513864456.0,286046995.1,Y
1513864475.8,286047001.0,P
1513864495.6,286047000.7,N
1513864515.5,286046999.6,N
1513864535.3,286046997.2,N
1513864555.2,286046998.2,N
1513864575.9,286046998.6,N
1513864595.7,286046999.4,N
1513864615.6,286046997.3,N
1513864635.4,286046998.9,N
1513864655.2,286046997.4,N
1513864675.1,286046997.2,N
1513864676.0,286046997.2,N
1513864695.8,286046998.2,N
1513864715.7,286046998.8,N
1513864735.5,286046998.4,N
1513864755.3,286046998.7,N
1513864775.2,286047000.7,N
1513864795.0,286046998.4,N
1513864795.9,286046998.4,N
